[[{"header":{"parameterUnit":"m.s-1","parameterCategory":1,"la1":30.2991,"la2":30.254,"lo1":-89.0895,"lo2":-89.0444,"dy":0.0017,"dx":0.0017,"nx":28,"ny":28,"refTime":"2024-05-17T09:00:00:Z","depth":0,"parameterNumber":2,"parameterNumberName":"U-component_of_WINDS"},"data":[0,0,0,0,0,0,0,0,0,0,0,0,0,0,0,0,0,0,0,0,0,0,0,0,0,0,0,0,0,0,0,0,0,0,0,0,0,0,0,0,0,0,0,0,0,0,0,0,0,0,0,0,0,0,0,0,0,0,1.0609,1.0608,0,1.0579,1.0579,1.0578,1.0532,1.0532,1.0531,1.053,1.0502,1.0502,1.0502,0,0,0,0,0,0,0,0,0,0,0,0,0,1.0629,1.0629,1.0609,1.0608,1.0608,1.0579,1.0579,1.0578,1.0533,1.0531,1.053,1.053,1.0502,1.0502,1.0502,0,0,0,0,0,0,0,0,0,0,0,0,0,1.0612,1.0629,1.0609,1.0581,1.0579,1.0579,1.0579,1.0578,1.0533,1.0531,1.053,1.0529,1.0502,1.0502,1.0502,1.0528,0,0,1.0503,1.0503,0,0,0,0,0,0,0,0,1.0613,1.0612,1.0586,1.0583,1.058,1.0558,1.0576,1.0561,1.0533,1.055,1.053,1.0528,1.0522,1.052,1.0518,1.0526,1.0525,1.0503,1.0503,1.0503,1.0503,0,0,0,0,0,0,0,1.0615,1.0613,1.0597,1.0586,1.0582,1.0572,1.0568,1.0573,1.0544,1.0549,1.0545,1.0542,1.052,1.0518,1.0517,1.0525,1.0503,1.0503,1.0503,1.0503,1.0555,1.0557,0,0,0,0,0,0,1.0619,1.0614,1.0598,1.0596,1.0594,1.0573,1.0568,1.0566,1.0543,1.0539,1.0543,1.054,1.0518,1.0517,1.0516,1.0545,1.0503,1.0503,1.0503,1.0554,1.0556,1.0557,0,0,0,0,0,0,1.062,1.0618,1.0599,1.0604,1.0601,1.0574,1.0572,1.0567,1.0564,1.0539,1.0534,1.0546,1.0517,1.0515,1.0525,1.0544,1.0503,1.0503,1.0552,1.0555,1.0556,1.0604,0,0,0,0,0,0,1.0621,1.0619,1.0627,1.0604,1.0601,1.0608,1.0573,1.0567,1.0564,1.0559,1.054,1.0536,1.0516,1.0526,1.0525,1.0543,1.0503,1.0551,1.0553,1.0556,1.06,1.0607,1.0613,0,0,0,0,0,1.0622,1.0642,1.0628,1.0626,1.061,1.0609,1.0607,1.0583,1.0565,1.0574,1.0559,1.0537,1.0541,1.0527,1.0526,1.0544,1.0549,1.0553,1.0556,1.0598,1.0606,1.0613,0,0,0,0,0,0,1.0667,1.0638,1.0622,1.0635,1.0625,1.0602,1.0612,1.0592,1.0588,1.0584,1.0555,1.0551,1.0565,1.0555,1.054,1.0569,1.0542,1.0545,1.0574,1.0582,1.0588,1.0591,1.0503,0,0,0,0,0,1.0679,1.068,1.0654,1.0668,1.0664,1.0639,1.0638,1.062,1.0609,1.0604,1.059,1.058,1.058,1.058,1.0578,1.0599,1.0595,1.0611,1.0617,1.0622,1.0626,1.0638,1.0645,1.0567,1.0567,1.0567,0,0,1.0703,1.0687,1.0689,1.0677,1.0667,1.067,1.0636,1.064,1.0642,1.0605,1.0614,1.0603,1.0591,1.0607,1.0613,1.0599,1.0647,1.0626,1.0631,1.0631,1.0642,1.0649,1.0656,1.0569,1.0569,1.0569,0,0,1.0748,1.0736,1.0747,1.0738,1.0723,1.0707,1.071,1.0689,1.068,1.0688,1.0662,1.0665,1.0664,1.0657,1.0653,1.0698,1.0678,1.0699,1.0731,1.0744,1.075,1.0755,1.0773,1.0779,1.0702,1.0702,1.0702,0,1.078,1.0782,1.0755,1.0761,1.0758,1.0725,1.0737,1.073,1.0716,1.0715,1.0699,1.0699,1.0688,1.0703,1.0714,1.0712,1.0715,1.0701,1.0751,1.0756,1.0761,1.0777,1.0784,1.0705,1.0704,1.0704,1.0704,0,1.0823,1.0825,1.0836,1.0823,1.0821,1.083,1.0806,1.0807,1.0791,1.0776,1.0786,1.0772,1.0768,1.077,1.0754,1.0783,1.0775,1.0756,1.0729,1.0771,1.0786,1.0792,1.0708,1.0707,1.0707,1.0706,0,0,1.0896,1.0869,1.0874,1.0868,1.085,1.0852,1.0861,1.0856,1.0858,1.085,1.0858,1.0859,1.0841,1.0837,1.082,1.0831,1.087,1.081,1.0809,1.0823,1.0904,1.0919,1.0927,1.0856,1.0857,1.0858,1.0905,0,1.0939,1.0951,1.0928,1.0946,1.0949,1.0918,1.0926,1.0917,1.0904,1.0906,1.0892,1.0894,1.087,1.0867,1.0876,1.0863,1.0886,1.0859,1.0865,1.0865,1.087,1.0934,1.0951,1.0996,1.0911,1.0912,1.0912,0,1.099,1.0984,1.1003,1.0986,1.0986,1.0993,1.0988,1.0989,1.0979,1.097,1.0966,1.0946,1.0955,1.0929,1.0942,1.0924,1.0925,1.0919,1.0921,1.0921,1.0892,1.0938,1.1009,1.1017,1.0921,1.092,1.092,0,1.1043,1.104,1.1051,1.1047,1.1027,1.1034,1.1026,1.1014,1.1014,1.101,1.1009,1.1007,1.1005,1.1005,1.0985,1.0967,1.1001,1.0973,1.0995,1.0996,1.1004,1.1004,1.1078,1.1003,1.1003,1.1003,1.1003,0,1.1093,1.1106,1.1075,1.1082,1.1097,1.1071,1.1086,1.1075,1.1066,1.1072,1.1045,1.1051,1.1024,1.1028,1.1013,1.1027,1.1027,1.102,1.1016,1.1023,1.1024,1.1024,1.1021,1.1005,1.1004,1.1004,1.1004,0,1.1155,1.1134,1.1145,1.1125,1.1121,1.1133,1.1117,1.1123,1.1109,1.1117,1.1117,1.1096,1.1099,1.108,1.1079,1.1069,1.1092,1.1082,1.1095,1.1092,1.1116,1.1115,1.1194,1.1203,1.1121,1.1122,1.1123,0,1.1189,1.1198,1.118,1.1182,1.1175,1.1178,1.1177,1.1153,1.1154,1.1144,1.1153,1.1154,1.1153,1.116,1.1146,1.1146,1.1137,1.1164,1.1137,1.1144,1.1139,1.1139,1.1141,1.117,1.1171,1.1172,1.1173,0,1.1252,1.1242,1.1241,1.1238,1.1238,1.1235,1.1229,1.1233,1.1207,1.1209,1.1212,1.1212,1.1212,1.1214,1.1212,1.1205,1.1186,1.1182,1.1187,1.1195,1.1203,1.12,1.1112,1.118,1.1179,1.1179,1.1178,1.1178,1.1302,1.1309,1.1298,1.1299,1.1293,1.1289,1.1295,1.1282,1.1284,1.1282,1.1268,1.1274,1.1266,1.126,1.1256,1.1261,1.1248,1.1256,1.1258,1.1261,1.1265,1.1201,1.1261,1.1261,1.126,1.126,1.126,0,1.1365,1.1356,1.1358,1.1351,1.1353,1.1334,1.1327,1.133,1.1336,1.133,1.133,1.1335,1.1337,1.1323,1.1324,1.1331,1.1323,1.1333,1.1332,1.1332,1.1276,1.1272,1.134,1.134,1.134,1.134,1.134,1.134,1.1397,1.141,1.1399,1.1409,1.1401,1.1406,1.1405,1.1402,1.1397,1.1403,1.1405,1.1395,1.1387,1.1387,1.1389,1.1385,1.1387,1.1401,1.1394,1.1343,1.1335,1.1328,1.1324,1.1401,1.1401,1.1449,1.1449,1.145]},{"header":{"parameterUnit":"m.s-1","parameterCategory":1,"la1":30.2991,"la2":30.254,"lo1":-89.0895,"lo2":-89.0444,"dy":0.0017,"dx":0.0017,"nx":28,"ny":28,"refTime":"2024-05-17T09:00:00:Z","depth":0,"parameterNumber":3,"parameterNumberName":"V-component_of_WINDS"},"data":[0,0,0,0,0,0,0,0,0,0,0,0,0,0,0,0,0,0,0,0,0,0,0,0,0,0,0,0,0,0,0,0,0,0,0,0,0,0,0,0,0,0,0,0,0,0,0,0,0,0,0,0,0,0,0,0,0,0,7.3365,7.3367,0,7.3557,7.3559,7.3562,7.3586,7.3584,7.3582,7.358,7.3773,7.3779,7.3786,0,0,0,0,0,0,0,0,0,0,0,0,0,7.3015,7.3022,7.3364,7.3367,7.3369,7.3557,7.356,7.3562,7.3586,7.3584,7.3581,7.3579,7.3771,7.3779,7.3787,0,0,0,0,0,0,0,0,0,0,0,0,0,7.3183,7.3024,7.3364,7.3404,7.3409,7.3556,7.356,7.3563,7.3586,7.3584,7.3581,7.3578,7.3768,7.3778,7.3788,7.3907,0,0,7.3819,7.3824,0,0,0,0,0,0,0,0,7.3174,7.3196,7.3396,7.3401,7.3408,7.3545,7.3507,7.3678,7.3587,7.3519,7.358,7.3577,7.3699,7.3715,7.3757,7.3916,7.3924,7.382,7.3827,7.3831,7.3834,0,0,0,0,0,0,0,7.3162,7.3188,7.3441,7.3398,7.3406,7.3412,7.3432,7.354,7.3622,7.3525,7.3527,7.355,7.3702,7.3747,7.3761,7.3927,7.382,7.3829,7.3836,7.384,7.4198,7.4201,0,0,0,0,0,0,7.3143,7.3178,7.3434,7.3446,7.3282,7.342,7.3443,7.3503,7.3621,7.3636,7.3552,7.355,7.3731,7.3749,7.3768,7.3918,7.3831,7.3841,7.3846,7.4195,7.4199,7.4203,0,0,0,0,0,0,7.3136,7.3166,7.3427,7.3313,7.3347,7.3429,7.3496,7.3509,7.3554,7.3642,7.3656,7.3583,7.3729,7.3754,7.3874,7.3925,7.3845,7.3855,7.4191,7.4196,7.4201,7.4217,0,0,0,0,0,0,7.3126,7.3163,7.3209,7.3314,7.3353,7.3529,7.35,7.3514,7.3572,7.3572,7.3675,7.3689,7.3729,7.3858,7.3884,7.3938,7.3863,7.4187,7.4193,7.4199,7.4212,7.4222,7.4231,0,0,0,0,0,7.3113,7.3205,7.3212,7.3242,7.3412,7.3532,7.3554,7.36,7.3576,7.3624,7.368,7.3686,7.3915,7.387,7.3899,7.3957,7.4184,7.4191,7.4199,7.4208,7.422,7.423,0,0,0,0,0,0,7.3101,7.3219,7.3228,7.3356,7.3435,7.3536,7.3597,7.361,7.3695,7.3691,7.3742,7.3766,7.3884,7.3932,7.388,7.4081,7.4047,7.4061,7.4045,7.4057,7.4066,7.4052,7.3871,0,0,0,0,0,7.3114,7.3203,7.33,7.3404,7.3443,7.3513,7.3567,7.3596,7.3678,7.3711,7.3776,7.3855,7.3946,7.4004,7.4091,7.422,7.4244,7.4274,7.4283,7.429,7.4301,7.4376,7.4392,7.4227,7.4227,7.4227,0,0,7.314,7.3216,7.3268,7.3404,7.3467,7.3558,7.3541,7.3636,7.3704,7.3725,7.3843,7.3894,7.3986,7.4111,7.417,7.4155,7.4352,7.43,7.4305,7.4312,7.4385,7.4401,7.4415,7.4232,7.4232,7.4231,0,0,7.3235,7.33,7.3396,7.3461,7.356,7.3607,7.3629,7.373,7.3766,7.3886,7.3905,7.3985,7.4139,7.4205,7.4258,7.4382,7.4391,7.4409,7.4456,7.4529,7.4542,7.4553,7.46,7.4615,7.442,7.442,7.442,0,7.3255,7.3393,7.3442,7.3539,7.3599,7.3625,7.3722,7.3783,7.3904,7.3944,7.3927,7.4123,7.4186,7.4329,7.436,7.4402,7.443,7.4398,7.4536,7.4548,7.456,7.4605,7.4622,7.4422,7.4422,7.4421,7.4421,0,7.3414,7.351,7.3575,7.3695,7.3762,7.3858,7.3922,7.3984,7.4007,7.4056,7.4179,7.4257,7.4362,7.4398,7.442,7.4545,7.4534,7.4526,7.4493,7.4577,7.462,7.4637,7.4424,7.4424,7.4423,7.4423,0,0,7.3505,7.3654,7.3677,7.3733,7.3845,7.392,7.4018,7.4123,7.4177,7.426,7.4344,7.4476,7.447,7.4531,7.4561,7.4625,7.4721,7.4609,7.4612,7.4629,7.4866,7.4873,7.4892,7.4728,7.4731,7.4734,7.4859,0,7.3614,7.3792,7.384,7.399,7.4081,7.4108,7.4194,7.4272,7.4321,7.4405,7.4458,7.4552,7.4536,7.4573,7.4637,7.4696,7.477,7.4687,7.4807,7.4811,7.4785,7.4914,7.492,7.5035,7.4876,7.4879,7.4881,0,7.3764,7.3854,7.4014,7.4119,7.4158,7.4235,7.4337,7.4416,7.4506,7.4538,7.4608,7.4633,7.4737,7.47,7.4845,7.4788,7.484,7.4876,7.4882,7.4895,7.4852,7.4932,7.5072,7.509,7.4908,7.4906,7.4904,0,7.3817,7.3978,7.4096,7.4142,7.4266,7.432,7.4373,7.4461,7.4522,7.4611,7.4652,7.4751,7.4806,7.4882,7.4934,7.4902,7.5076,7.5042,7.5106,7.5104,7.5141,7.5138,7.5292,7.5173,7.5172,7.5172,7.5172,0,7.3934,7.4032,7.4122,7.4194,7.4304,7.436,7.4467,7.4522,7.46,7.4684,7.4712,7.479,7.4854,7.494,7.4982,7.5097,7.5121,7.5149,7.516,7.5148,7.5144,7.5183,7.5177,7.5177,7.5176,7.5175,7.5174,0,7.4012,7.4076,7.4206,7.4314,7.4344,7.442,7.4513,7.4584,7.4635,7.4741,7.4769,7.4849,7.4953,7.5013,7.5142,7.517,7.5299,7.5304,7.5269,7.5274,7.5335,7.533,7.5521,7.555,7.5409,7.541,7.5411,0,7.4083,7.4159,7.4276,7.4336,7.4391,7.4485,7.455,7.4608,7.4673,7.4784,7.4842,7.4948,7.5036,7.5201,7.527,7.5371,7.538,7.544,7.5395,7.5382,7.5383,7.5378,7.5387,7.5448,7.5449,7.545,7.5451,0,7.4203,7.4232,7.4324,7.4429,7.4505,7.4589,7.4673,7.472,7.4792,7.4864,7.4972,7.504,7.5176,7.5281,7.5388,7.5443,7.546,7.5465,7.5485,7.5474,7.5452,7.5467,7.5292,7.546,7.5459,7.5458,7.5458,7.5457,7.4281,7.4351,7.4446,7.4548,7.4618,7.4697,7.4771,7.4833,7.4924,7.504,7.5069,7.5183,7.5274,7.5419,7.5477,7.5568,7.5557,7.5586,7.5594,7.56,7.5604,7.5437,7.5587,7.5587,7.5587,7.5586,7.5586,0,7.4404,7.4467,7.4561,7.468,7.4761,7.4772,7.4866,7.4933,7.5034,7.5118,7.5205,7.5331,7.5434,7.5513,7.562,7.5677,7.5687,7.5703,7.57,7.5713,7.5606,7.5578,7.5693,7.5693,7.5693,7.5693,7.5693,7.5693,7.4478,7.4599,7.4639,7.4796,7.4858,7.4972,7.5025,7.5098,7.5166,7.5306,7.5393,7.5445,7.5528,7.5641,7.5737,7.5758,7.5796,7.5811,7.5833,7.5731,7.572,7.5709,7.5683,7.5818,7.5818,7.5933,7.5934,7.5934]}]]